Regional Weather Roundup
Issued by NWS

Home | Current Version | Previous Version | Graphics & Text | Print | Product List | Glossary On
Versions: 1 2 3 4 5 6 7 8 9 10 11 12 13 14 15 16 17 18 19 20 21 22 23 24 25 26 27 28
000
ASUS45 KSLC 300910
RWRUT

UTAH REGIONAL WEATHER ROUNDUP
NATIONAL WEATHER SERVICE SALT LAKE CITY UT
300 AM MDT THU OCT 30 2014

UTZ001>011-023>025-301000-

NORTHERN UTAH

CITY           SKY/WX    TMP DP  RH WIND       PRES   REMARKS
BRIGHAM CITY   CLEAR     40  27  59 CALM      30.28S
HILL AFB       CLEAR     47  26  44 E16       30.28R
LOGAN          CLEAR     33  27  78 CALM      30.29S
OGDEN          CLEAR     46  28  49 S8        30.27R
PROVO AIRPORT  PTCLDY    39  23  52 CALM      30.29F
SALT LAKE CITY CLEAR     42  30  62 S6        30.26F
VERNAL         PTCLDY    34  24  67 W7        30.33R WCI  28
WENDOVER       PTCLDY    39  25  56 CALM      30.26F
HEBER CITY     CLEAR     30  23  74 CALM      30.35S
WEST JORDAN    CLEAR     43  30  61 CALM      30.28S

$$

UTZ012>022-026-027-301000-

SOUTHERN/CENTRAL UTAH

CITY           SKY/WX    TMP DP  RH WIND       PRES   REMARKS
BLANDING       PTCLDY    40  16  37 NW5       30.38S
BRYCE CANYON   PTCLDY    29  18  63 W9        30.40S WCI  20
CEDAR CITY     PTCLDY    38  18  44 S3        30.28S
DELTA          PTCLDY    39  22  50 CALM      30.27S
HANKSVILLE       N/A     34  10  37 CALM      30.32S
MILFORD        MOCLDY    39  19  44 S7        30.27F WCI  34
MOAB/CYNLANDS  CLEAR     35  12  38 CALM      30.29R
PRICE          PTCLDY    40  17  39 N5        30.33R
ST GEORGE      SUNNY     52  18  25 SE3       30.19F
KANAB            N/A     46  19  34 NW13      30.30S

$$

REGIONAL REPORTS     COLORADO/ARIZONA

CITY           SKY/WX    TMP DP  RH WIND       PRES   REMARKS
CRAIG, CO      MOCLDY    32  24  72 CALM      30.37S
GRAND JUNCTION CLEAR     38  20  48 SE9       30.31S WCI  31
RIFLE          CLEAR     33  21  61 CALM      30.37R
MONTROSE       CLEAR     35  21  56 S9        30.37S WCI  28
CORTEZ         CLEAR     31  17  56 E5        30.33R WCI  26
PAGE, AZ       PTCLDY    52  20  28 CALM      30.25S
GRAND CANYON   PTCLDY    30  16  56 NE3       30.34S
KINGMAN        CLEAR     56  24  29 CALM      30.14S
FLAGSTAFF      PTCLDY    31  22  69 CALM      30.35F

$$

REGIONAL REPORTS    NEVADA/IDAHO/WYOMING

CITY           SKY/WX    TMP DP  RH WIND       PRES   REMARKS
LAS VEGAS, NV  CLEAR     61  23  23 S10       30.05S
ELY            CLEAR     32  15  49 S7        30.32S WCI  26
ELKO           PTCLDY    35  21  56 E6        30.25S WCI  30
POCATELLO, ID  CLEAR     39  29  67 NW6       30.27R WCI  35
BURLEY         CLEAR     35  32  88 CALM      30.23S
EVANSTON, WY   PTCLDY    39  24  55 SE8       30.36S WCI  33
ROCK SPRINGS   PTCLDY    40  29  64 CALM      30.36R

$$



USA.gov is the U.S. government's official web portal to all federal, state and local government web resources and services.